パロマー彗星

C/2019 J2 ( Palomar )

English version
Home page
Updated on November 9, 2019

---------------------------------------------------------------------

・ プロフィール

発見日 2019年5月9日
発見光度 16.8等
発見者 Quan-zhi Ye (Palomar)

・ 写真集

・ 軌道要素

Epoch 2019 July 16.0 TT = JDT 2458680.5
T 2019 July 19.72633 TT                                 Williams
q   1.7269107            (2000.0)            P               Q
z  +0.0013957      Peri.   98.70416     -0.02562284     -0.90940660
 +/-0.0001556      Node    25.47002     -0.65306690     -0.29916803
e   0.9975898      Incl.  105.13701     +0.75686663     -0.28892583
From 129 observations 2019 Apr. 27-July 19, mean residual 0".6.

・ 星図

・ 光度変化

        m1 = 2.5 + 5 logΔ + 50 log r(t + 70)

        ※ 灰色の曲線は、m1 = 12.0 + 5 logΔ + 10.0 log r の光度曲線です。

---------------------------------------------------------------------

軌道要素はM.P.E.C. 2019-Q135に掲載されたものです。
星図はステラナビゲータ Ver.10 (アストロアーツ) で作成したものです。
光度グラフはComet for Windowsで作成したものです。

---------------------------------------------------------------------

Copyright(C) Seiichi Yoshida (comet@aerith.net). All rights reserved.